AO-07 1 07530U 74089B 24340.56761810 -.00000033 00000-0 83477-4 0 9990 2 07530 101.9897 336.8905 0012360 116.6839 358.1161 12.53683387290510 AO-27 1 22825U 93061C 24340.40450784 .00000421 00000-0 17820-3 0 9991 2 22825 98.7661 34.7799 0007465 302.0160 58.0297 14.30673765627098 FO-29 1 24278U 96046B 24340.58208995 .00000050 00000-0 83545-4 0 9991 2 24278 98.5875 252.7978 0350954 104.3186 259.7183 13.53223992397616 ISS 1 25544U 98067A 24340.66404067 .00017729 00000-0 31492-3 0 9994 2 25544 51.6381 185.8361 0007043 305.3104 164.1439 15.50252031485142 SO-50 1 27607U 02058C 24340.60062387 .00003272 00000-0 44094-3 0 9990 2 27607 64.5556 54.1219 0033901 25.9087 334.3706 14.80451231181683 AO-73 1 39444U 13066AE 24340.42931106 .00017042 00000-0 14455-2 0 9994 2 39444 97.7419 296.8733 0041372 291.7516 67.9305 14.97333765595680 XW-2C 1 40906U 15049H 24340.58865164 .00133004 00000-0 11588-2 0 9990 2 40906 97.4563 4.2638 0006142 55.4490 304.7350 15.68573253511068 XW-2D 1 40907U 15049J 24320.92351917 .16701952 27880-5 21132-3 0 9990 2 40907 97.4221 349.6759 0008313 198.6926 161.4075 16.49393757508467 LILACSAT-2 1 40908U 15049K 24340.58944932 .00018580 00000-0 59448-3 0 9992 2 40908 97.5193 351.1923 0012890 102.1769 258.0917 15.32385034509681 XW-2E 1 40909U 15049L 24087.81329062 .07113575 25348-5 12295-2 0 9990 2 40909 97.3887 118.6826 0008261 229.8424 130.2149 16.32913615473412 XW-2F 1 40910U 15049M 24092.20923921 .16747303 26701-5 28112-3 0 9997 2 40910 97.4046 122.6776 0010391 231.3491 128.6883 16.47481859473951 XW-2B 1 40911U 15049N 24327.12054824 .12327907 26494-5 35331-3 0 9997 2 40911 97.4275 356.1968 0008296 243.8788 116.1661 16.44814145509299 IO-86 1 40931U 15052B 24337.09180034 .00002217 00000-0 20975-3 0 9992 2 40931 5.9986 232.5457 0013173 302.5393 57.3463 14.78392648496340 FOX-1 1 40967U 15058D 24340.08225967 .00007425 00000-0 64796-3 0 9990 2 40967 64.7754 210.4131 0184960 252.7066 105.3734 14.85239471 30346 NUSAT 1 1 41557U 16033B 23294.57261523 .13570584 25586-5 20126-3 0 9994 2 41557 97.3596 50.5245 0012741 279.5777 80.4087 16.47966609413529 CAS-2T 1 41847U 16066G 24340.44040393 .00002588 00000-0 37909-3 0 9997 2 41847 98.4434 50.4436 0350091 21.3054 340.2310 14.42503007424170 EO-88 1 42017U 17008BX 23199.44167461 .08967960 24048-5 93873-3 0 9998 2 42017 97.1901 272.9585 0015059 261.6732 98.2859 16.37376287358454 CAS-4B 1 42759U 17034B 24340.42522238 .00045469 00000-0 10868-2 0 9996 2 42759 43.0153 331.1005 0012812 77.3848 282.8440 15.40689052413690 CAS-4A 1 42761U 17034D 24340.40730204 .00047138 00000-0 11148-2 0 9998 2 42761 43.0187 329.3554 0013630 86.5765 273.6651 15.40983973413698 AO-91 1 43017U 17073E 24340.15469960 .00014443 00000-0 79797-3 0 9994 2 43017 97.5487 209.9561 0194773 79.3473 282.9618 14.99180602381225 AO-92 1 43137U 18004AC 24033.82494968 .13075370 24468-5 25682-3 0 9994 2 43137 97.2729 126.2745 0011105 309.1902 50.8414 16.46500565338357 PICSAT 1 43132U 18004X 23274.90669177 .16535587 25409-5 24982-3 0 9992 2 43132 97.2902 3.7671 0010678 260.9850 99.0246 16.48076850319334 PO-101 1 43678U 18084H 24340.50702071 .00003273 00000-0 29128-3 0 9994 2 43678 98.0869 143.9084 0008512 177.7970 182.3289 14.96785829332531 QO-100 1 43700U 18090A 24340.52409097 .00000163 00000-0 00000-0 0 9991 2 43700 0.0162 8.5108 0001934 285.1512 355.6335 1.00271243 22079 JO-97 1 43803U 18099AX 24340.11277289 .00021440 00000-0 11836-2 0 9997 2 43803 97.4963 35.4594 0009693 76.8646 283.3667 15.13914795328498 FO-99 1 43937U 19003F 23313.54107761 .16492241 25339-5 26604-3 0 9999 2 43937 97.0315 342.1459 0005268 231.7168 128.3663 16.48231493268837 TO-108 1 44881U 19093C 24340.54986105 .00002865 00000-0 34322-3 0 9996 2 44881 97.8137 53.9980 0015260 119.3435 240.9307 14.84788064268467 RS-44 1 44909U 19096E 24340.56272653 .00000019 00000-0 30753-4 0 9992 2 44909 82.5216 350.8968 0217679 10.8400 349.7282 12.79736621230897 AO-109 1 47311U 21002C 24112.58294100 .09167436 99880-5 88771-3 0 9999 2 47311 60.6450 276.5573 0006279 285.8230 74.2218 16.37785734182462 UVSQ-SAT 1 47438U 21006AB 24298.11681880 .03670113 23594-5 18855-2 0 9991 2 47438 97.2775 3.3666 0006581 273.2868 86.7668 16.20433421208899 CSS 1 48274U 21035A 24340.40233757 .00022514 00000-0 27779-3 0 9999 2 48274 41.4662 119.4610 0000818 143.1351 216.9544 15.59635171205873 HO-113 1 50466U 21131B 24340.54991897 .00001604 00000-0 51980-3 0 9991 2 50466 98.5214 64.8240 0003706 348.3592 11.7510 14.40320131154662 Tevel-1 1 51013U 22002AF 24217.47990832 .17024539 25488-5 26344-3 0 9999 2 51013 97.3517 296.8662 0017808 259.4091 100.5207 16.47113739142696 Tevel-7 1 51062U 22002CG 24215.97230178 .05418465 24496-5 15072-2 0 9991 2 51062 97.3509 295.4378 0015078 264.3393 95.6180 16.27574534142457 Tevel-4 1 51063U 22002CH 24217.68533605 .05991808 24509-5 17243-2 0 9997 2 51063 97.3564 297.1077 0014984 266.4742 93.4837 16.27195964142710 Tevel-2 1 51069U 22002CP 24216.00863110 .06095772 24440-5 17929-2 0 9996 2 51069 97.3472 295.3558 0015472 266.0906 93.8617 16.26925185142466 HADES 1 51080U 22002DA 24138.97473861 .01172231 64229-3 32625-2 0 9996 2 51080 97.4039 222.9048 0007866 241.8685 118.1795 15.93809903130740 EASAT-2 1 51081U 22002DB 24142.74938777 .04626486 24555-5 17453-2 0 9990 2 51081 97.3942 227.5617 0013403 270.7229 89.2527 16.24102617131380 Tevel-3 1 50988U 22002E 24216.32026118 .06112943 24608-5 13272-2 0 9992 2 50988 97.3448 295.7406 0014751 266.8727 93.0880 16.30291923142513 Tevel-8 1 50989U 22002F 24216.68655818 .06045991 24594-5 14411-2 0 9995 2 50989 97.3519 296.2280 0015989 264.8635 95.0834 16.29228967142561 Tevel-5 1 50998U 22002Q 24200.23570604 .08580035 24925-5 11837-2 0 9990 2 50998 97.3564 280.3105 0016090 265.0303 94.9157 16.34769010140097 Tevel-6 1 50999U 22002R 24201.25211657 .14390351 25345-5 39579-3 0 9992 2 50999 97.3365 281.3486 0014741 257.2789 102.6865 16.44208008140259 TO-108 1 54684U 22167C 24340.58003311 .00119164 00000-0 17313-2 0 9998 2 54684 97.6150 132.1900 0008274 260.9018 99.1299 15.55342611110677 INSPIRE-SAT 7 1 56211U 23054AK 24262.29064463 .11675157 26116-5 88932-3 0 9996 2 56211 97.3163 168.3145 0008158 207.0865 153.0010 16.40455525 80975 SO-121 1 58567U 23174CY 24309.97818561 .05857091 24053-5 40431-2 0 9999 2 58567 97.4081 29.7179 0009578 300.1764 59.8573 16.16392543 55554 MO-122 1 60209U 24125G 24340.55254126 .00024525 00000-0 93277-3 0 9993 2 60209 97.2981 189.2358 0024781 80.6367 279.7673 15.26470981 23484 YUZGU 8 1 53306U 98067TR 23025.79167360 .07011754 12129-4 11372-2 0 9998 2 53306 51.6063 292.9414 0006142 218.6650 243.8329 16.32721285 29461 YUZGU 12 1 53308U 98067TT 23029.07738038 .12328418 12448-4 55907-3 0 9992 2 53308 51.6129 276.0899 0007051 254.5007 105.5243 16.42903695 30044 YUZGU 5 1 53309U 98067TU 23026.78154543 .07817383 12266-4 25237-2 0 9999 2 53309 51.5369 287.2498 0215129 186.3126 284.9191 16.41937082 29633 YUZGU 9 1 53310U 98067TV 23027.95360578 .07311626 12146-4 11649-2 0 9996 2 53310 51.6161 282.1016 0006762 235.3476 124.6910 16.32881878 29843 TSIOLKOVSKY-RYAZAN 1 1 53311U 98067TW 23023.95662205 .10980964 12291-4 94749-3 0 9990 2 53311 51.6134 301.8850 0005230 218.9303 141.1347 16.38525487 29243 YUZGU 6 1 53312U 98067TX 23027.23010772 .07984851 12172-4 10935-2 0 9999 2 53312 51.6130 285.5123 0006786 228.9660 131.0778 16.34340713 29693 YUZGU 7 1 53313U 98067TY 23026.97308621 .06899054 12108-4 12066-2 0 9998 2 53313 51.6139 286.8007 0007093 224.6880 135.3572 16.31947587 29707 NO-44 1 26931U 01043C 24340.18785830 .00000715 00000-0 29964-3 0 9998 2 26931 67.0511 249.6880 0006940 260.9845 99.0472 14.31529439210424 NO-103 1 44355U 19036S 22110.24609159 .09797144 -77191-5 93620-3 0 9997 2 44355 28.5075 82.7172 0016307 255.7935 104.0877 16.36779689157079 LEDSAT 1 49069U 21073D 24340.46740808 .00047165 00000-0 12720-2 0 9998 2 49069 97.4167 51.5806 0015132 37.1558 323.0730 15.37537545182644 IO-117 1 53106U 22080B 24340.33076919 -.00000003 00000-0 00000-0 0 9992 2 53106 70.1317 133.0636 0008362 68.7653 291.3899 6.42557789 56265 EOS-7 1 55562U 23019A 24339.98178821 .00296665 00000-0 10205-2 0 9997 2 55562 37.1697 207.6377 0008135 260.8888 99.0965 15.87851963102977 SONATE-2 1 59112U 24043Q 24340.31157138 .00025400 00000-0 97349-3 0 9999 2 59112 97.4955 103.3455 0013516 56.5755 303.6774 15.26418340 41839 ASRTU-1 1 99130U 20499A 24339.27730324 -.00075708 00000-0 -31541-2 0 00003 2 99130 097.3798 203.6106 0018654 134.9601 271.4477 15.23657628000011